KJ4CO Weather Reports


time (UTC)temp
F
wind
direction
speed
knots
gust
knots
rain 1hr
in
rain 24hr
in
rain mn
in
humidity
%
barometer
mb
20260904131517 76 144 0.0 0.0 0.00 0.00 0.00 97 1015.1
20260904130015 75 144 0.0 0.0 0.00 0.00 0.00 96 1015.0
20260904124513 75 144 0.0 0.0 0.00 0.00 0.00 96 1014.9
20260904123014 74 144 0.0 0.0 0.00 0.00 0.00 96 1014.9
20260904121511 74 144 0.0 0.0 0.00 0.00 0.00 95 1014.8
20260904120013 74 144 0.0 0.0 0.00 0.00 0.00 95 1014.6
20260904114510 74 144 0.0 0.0 0.00 0.00 0.00 95 1014.6
20260904113026 74 144 0.0 0.0 0.00 0.00 0.00 95 1014.4
20260904111519 74 144 0.0 0.0 0.00 0.00 0.00 95 1014.4
20260904110005 74 144 0.0 0.0 0.00 0.00 0.00 95 1014.2
20260904104504 74 144 0.0 0.0 0.00 0.00 0.00 95 1014.2
20260904103002 74 144 0.0 0.0 0.00 0.00 0.00 95 1014.1
20260904101500 74 144 0.0 0.0 0.00 0.00 0.00 95 1014.0
20260904100108 75 144 0.0 0.0 0.00 0.00 0.00 95 1013.8
20260904094559 75 144 0.0 0.0 0.00 0.00 0.00 95 1013.7
20260904093058 75 144 0.0 0.0 0.00 0.00 0.00 95 1013.6
20260904091555 75 144 0.0 0.0 0.00 0.00 0.00 95 1013.6
20260904090055 75 144 0.0 0.0 0.00 0.00 0.00 95 1013.5
20260904084554 75 144 0.0 0.0 0.00 0.00 0.00 95 1013.5
20260904083052 76 144 0.0 0.0 0.00 0.00 0.00 95 1013.4
20260904081552 76 144 0.0 0.0 0.00 0.00 0.00 95 1013.4
20260904080054 76 144 0.0 0.0 0.00 0.00 0.00 94 1013.3
20260904074547 76 144 0.0 0.0 0.00 0.00 0.00 95 1013.2
20260904073051 76 144 0.0 0.0 0.00 0.00 0.00 95 1013.3
20260904071544 76 144 0.0 0.0 0.00 0.00 0.00 94 1013.3
20260904070043 77 144 0.0 0.0 0.00 0.00 0.00 94 1013.4
20260904064541 77 144 0.0 0.0 0.00 0.00 0.00 94 1013.4
20260904063040 77 144 0.0 0.0 0.00 0.00 0.00 94 1013.5
20260904061546 77 144 0.0 0.0 0.00 0.00 0.00 94 1013.5
20260904060037 77 144 0.0 0.0 0.00 0.00 0.00 94 1013.6
20260904054537 78 144 0.0 0.0 0.00 0.00 0.00 94 1013.6
20260904053035 78 144 0.0 0.0 0.00 0.00 0.00 94 1013.7
20260904051535 78 144 0.0 0.0 0.00 0.00 0.00 94 1013.7
20260904050032 78 144 0.0 0.0 0.00 0.00 0.00 94 1013.9
20260904044540 79 144 0.0 0.0 0.00 0.00 0.00 94 1013.8
20260904043030 79 144 0.0 0.0 0.00 0.00 0.00 93 1014.0
20260904041535 79 144 0.0 0.0 0.00 0.00 0.00 93 1013.9
20260904040028 79 144 0.0 0.0 0.00 0.00 0.00 93 1014.0
20260904034527 79 144 0.0 0.0 0.00 0.00 0.00 93 1014.0
20260904033028 80 144 0.0 0.0 0.00 0.00 0.00 92 1014.0
20260904031526 80 144 0.0 0.0 0.00 0.00 0.00 92 1013.9
20260904030029 81 144 0.0 0.0 0.00 0.00 0.00 92 1014.0
20260904024526 81 144 0.0 0.0 0.00 0.00 0.00 92 1013.9
20260904023025 81 144 0.0 0.0 0.00 0.00 0.00 91 1013.9
20260904021525 82 144 0.0 0.0 0.00 0.00 0.00 91 1013.7
20260904020038 82 144 0.0 0.0 0.00 0.00 0.00 90 1013.5
20260904014523 83 144 0.0 0.0 0.00 0.00 0.00 90 1013.4
20260904013025 83 144 0.0 0.0 0.00 0.00 0.00 89 1013.3
20260904011522 84 144 0.0 0.0 0.00 0.00 0.00 88 1013.3
20260904010023 85 144 0.0 0.0 0.00 0.00 0.00 87 1013.3
20260904004521 85 144 0.0 0.0 0.00 0.00 0.00 86 1013.1
20260904003024 86 144 0.0 0.0 0.00 0.00 0.00 85 1013.1
20260904001520 87 144 0.0 0.0 0.00 0.00 0.00 83 1013.1
20260904000020 88 144 0.0 0.0 0.00 0.00 0.00 82 1012.9
20260903234519 89 144 0.0 0.0 0.00 0.00 0.00 83 1012.8
20260903233018 89 144 0.0 0.0 0.00 0.00 0.00 82 1012.7
20260903231519 90 144 0.0 0.0 0.00 0.00 0.00 82 1012.8
20260903230017 90 144 0.0 0.0 0.00 0.00 0.00 81 1012.6
20260903224516 91 144 0.0 0.0 0.00 0.00 0.00 78 1012.5
20260903223022 91 144 0.0 0.0 0.00 0.00 0.00 77 1012.6
20260903221514 91 144 0.0 0.0 0.00 0.00 0.00 77 1012.6
20260903220016 91 144 0.0 0.0 0.00 0.00 0.00 77 1012.6
20260903214514 91 144 0.0 0.0 0.00 0.00 0.00 78 1012.7
20260903213013 91 144 0.0 0.0 0.00 0.00 0.00 72 1012.8
20260903211509 93 144 0.0 0.0 0.00 0.00 0.00 70 1013.0
20260903210008 95 144 0.0 0.0 0.00 0.00 0.00 66 1013.2
20260903204504 97 144 0.0 0.0 0.00 0.00 0.00 61 1013.3
20260903203005 98 144 0.0 0.0 0.00 0.00 0.00 52 1013.2
20260903201501 97 144 0.0 0.0 0.00 0.00 0.00 52 1013.4
20260903200108 97 144 0.0 0.0 0.00 0.00 0.00 58 1013.6
20260903194556 97 144 0.0 0.0 0.00 0.00 0.00 57 1013.7
20260903193101 96 144 0.0 0.0 0.00 0.00 0.00 58 1013.8
20260903191600 96 144 0.0 0.0 0.00 0.00 0.00 57 1013.9
20260903190049 95 144 0.0 0.0 0.00 0.00 0.00 58 1014.1
20260903184546 96 144 0.0 0.0 0.00 0.00 0.00 59 1014.3
20260903183104 96 144 0.0 0.0 0.00 0.00 0.00 54 1014.4
20260903181541 97 144 0.0 0.0 0.00 0.00 0.00 53 1014.6
20260903180039 97 140 0.0 0.0 0.00 0.00 0.00 51 1014.7
20260903174535 96 143 0.0 0.0 0.00 0.00 0.00 51 1014.9
20260903173035 95 139 0.0 0.0 0.00 0.00 0.00 53 1015.0
20260903171530 94 166 0.0 0.0 0.00 0.00 0.00 56 1015.1
20260903170029 95 145 0.0 0.0 0.00 0.00 0.00 57 1015.1
20260903164527 94 147 0.0 0.0 0.00 0.00 0.00 57 1015.3
20260903163024 93 155 0.0 0.0 0.00 0.00 0.00 58 1015.5
20260903161531 92 147 0.0 0.0 0.00 0.00 0.00 63 1015.5
20260903160021 91 142 0.0 0.0 0.00 0.00 0.00 67 1015.6
20260903154514 89 124 0.0 0.0 0.00 0.00 0.00 73 1015.7
20260903153011 88 124 0.0 0.0 0.00 0.00 0.00 75 1015.8
20260903151506 87 124 0.0 0.0 0.00 0.00 0.00 79 1015.7
20260903150002 85 124 0.0 0.0 0.00 0.00 0.00 82 1015.7
20260903144559 84 124 0.0 0.0 0.00 0.00 0.00 85 1015.8
20260903143054 82 124 0.0 0.0 0.00 0.00 0.00 91 1015.7
20260903141550 80 124 0.0 0.0 0.00 0.00 0.00 95 1015.9
20260903140047 79 124 0.0 0.0 0.00 0.00 0.00 96 1016.0
20260903134554 78 124 0.0 0.0 0.00 0.00 0.00 97 1016.0
20260903133048 77 124 0.0 0.0 0.00 0.00 0.00 97 1016.0